Regional Weather Roundup
Issued by NWS Grand Forks, ND

Home | Current Version | Previous Version | Graphics & Text | Print | Product List | Glossary On
Versions: 1 2 3 4 5 6 7 8 9 10 11 12 13 14 15 16 17 18 19 20 21 22 23 24 25 26 27 28 29 30 31 32 33 34 35 36 37 38 39 40 41 42 43 44 45 46 47 48 49 50
000
ASUS43 KFGF 270510
RWRFGF
PRAIRIE TO PINES  WEATHER ROUNDUP
NATIONAL WEATHER SERVICE EASTERN NORTH DAKOTA/GRAND FORKS ND
1200 AM CDT WED AUG 27 2014

 **SATELLITE DATA USED TO AUGMENT SKY COVER AT AUTOMATED STATIONS**
 *****  WEATHER ACROSS EASTERN NORTH DAKOTA  *****

CITY           SKY/WX    TMP DP  RH WIND       PRES   REMARKS
GRAND FORKS    CLEAR     53  52  96 S5        30.15S
GRAND FRKS AFB CLEAR     53  53  99 W6        30.16R
GRAND FRKS NWS   N/A     55 N/A N/A SW6         N/A
DEVILS LAKE    CLEAR     61  52  72 SW13      30.15S
FARGO          MOCLDY    58  57  97 CALM      30.19R
WAHPETON ARPT  CLOUDY    59  55  88 CALM      30.20S
$$

 ***** WEATHER ACROSS CENTRAL AND WESTERN NORTH DAKOTA  *****

CITY           SKY/WX    TMP DP  RH WIND       PRES   REMARKS
BISMARCK       CLOUDY    56  54  93 NE3       30.19S
MINOT          CLEAR     59  50  72 S10       30.15R
JAMESTOWN      PTCLDY    52  51  97 CALM      30.18F FOG
MINOT AFB      CLEAR     52  51  95 S3        30.14S
GARRISON         N/A     52  51  97 SW6       30.17R
WILLISTON      CLEAR     52  48  86 CALM      30.12S
DICKINSON      CLEAR     52  50  93 S8        30.17R
HETTINGER      CLEAR     52  49  89 SE3       30.20R
$$

 *****  OTHER AIRPORT OBSERVATIONS IN OUR AREA  *****

CITY           SKY/WX    TMP DP  RH WIND       PRES   REMARKS
WALHALLA         N/A     52  52 100 CALM      30.14S
GRAFTON AIRPOR FAIR      50  50 100 SE5       30.14S
VALLEY CITY AR FAIR      54  54 100 S3        30.19S
CANDO          FAIR      50  48  93 CALM      30.16S
CAVALIER APRT  FAIR      54  50  87 S3        30.14S
GWINNER        CLOUDY    59  59 100 CALM      30.21R
SHEYENNE NWR     N/A     58  57  97 CALM      29.95
ROLLA          FAIR      46  46 100 SW5       30.17S
 ***** THE ABOVE OBSERVATIONS ARE NON NWS ARE NOT QUALITY
       CONTROLLED AND MAY MIS-REPORT RAIN FOR SNOW...
$$

  *****  WEATHER ACROSS NORTHERN MINNESOTA  *****

CITY           SKY/WX    TMP DP  RH WIND       PRES   REMARKS
FLAG ISLAND    CLEAR     54  46  76 SW6       30.15S
WARROAD        PTCLDY    46  43  87 S6        30.17F
ROSEAU         CLEAR     46  43  87 S5        30.17S
HALLOCK        CLEAR     54  48  82 SE7       30.15R
THF RVR FALLS  CLEAR     54  48  82 SE6       30.17S
BAUDETTE       PTCLDY    47  45  93 SW5       30.17S
WASKISH        PTCLDY    45  43  93 CALM      30.19R FOG
CROOKSTON      PTCLDY    55  54  94 S5        30.17S
$$
  *****  WEATHER ACROSS CENTRAL AND WEST MINNESOTA  *****

CITY           SKY/WX    TMP DP  RH WIND       PRES   REMARKS
FOSSTON        PTCLDY    48  46  93 CALM      30.20R
BEMIDJI        PTCLDY    51  51  99 CALM      30.19S FOG
PARK RAPIDS    CLOUDY    58  56  93 CALM      30.19S
ELBOW LAKE     RAIN      58  56  94 N3        30.20R
WADENA         LGT RAIN  57  55  94 SW3       30.21R
DETROIT LAKES  MOCLDY    59  55  88 CALM      30.21R
MOORHEAD       CLOUDY    61  61 100 CALM      30.20S
FERGUS FALLS   LGT RAIN  59  57  94 CALM      30.21S
MORRIS MN      CLOUDY    61  57  88 CALM      30.20R
STAPLES        DRIZZLE   55  55 100 CALM      30.21S
$$
  *****  WEATHER ELSEWHERE ACROSS MINNESOTA  *****

CITY           SKY/WX    TMP DP  RH WIND       PRES   REMARKS
DULUTH         CLOUDY    56  48  74 NW6       30.18R
INTRNTL FALLS  PTCLDY    41  40  96 W3        30.17R
ELY            LGT RAIN  52  48  87 CALM      30.16F
CLOQUET        LGT RAIN  55  48  76 W3        30.19R
WHEATON        CLOUDY    57  55  94 CALM      30.21S
BRAINERD       LGT RAIN  57  55  93 CALM      30.21R
HIBBING        LGT RAIN  52  49  89 CALM      30.19R
ALEXANDRIA     LGT RAIN  60  57  89 NW7       30.22R
SAINT CLOUD    CLOUDY    63  58  83 N3        30.19S
MINNEAPOLIS    LGT RAIN  66  56  70 N3        30.19R
$$

  *****  WEATHER ACROSS SOUTH DAKOTA  *****

CITY           SKY/WX    TMP DP  RH WIND       PRES   REMARKS
SIOUX FALLS    MOCLDY    62  57  83 E5        30.18S
BROOKINGS      NOT AVBL
WATERTOWN      CLOUDY    59  55  87 VRB3      30.19S
HURON          CLOUDY    61  58  90 E6        30.16S
SISSETON         N/A     60  58  92 CALM      30.18S
ABERDEEN       CLOUDY    58  56  93 N5        30.19R
MITCHELL       PTCLDY    61  58  90 SE6       30.17R
PIERRE         PTCLDY    57  54  89 NE10      30.14S
MOBRIDGE       CLOUDY    59  55  87 E7        30.15S
RAPID CITY     MOCLDY    63  54  72 CALM      30.17R
$$

  *****  SOME WEATHER IN NEARBY STATES *****

CITY           SKY/WX    TMP DP  RH WIND       PRES   REMARKS
GLASGOW MT     CLEAR     59  51  75 E10       30.07S
GREAT FALLS MT CLEAR     61  43  51 SW12      30.06S
CHEYENNE WY    MOCLDY    58  52  80 SE5       30.26S
SCOTTSBLUFF NE MOCLDY    64  57  78 E9        30.13R
OMAHA NE       MOCLDY    71  65  81 E6        30.12S
DES MOINES IA  MOCLDY    73  64  73 NE5       30.13S
DAVENPORT IA   PTCLDY    68  63  84 NE5       30.12S
CHICAGO IL     CLOUDY    72  64  76 N3        30.12R
EAU CLAIRE WI  MOCLDY    62  57  83 N3        30.16R
LA CROSSE WI   CLOUDY    65  60  84 N3        30.15R
$$

  *****  SOME NATIONAL WEATHER *****

CITY           SKY/WX    TMP DP  RH WIND       PRES   REMARKS
LA GUARDIA NY  PTCLDY    73  58  59 SW9       30.07F
RALEIGH NC     PTCLDY    66  62  87 CALM      30.09S
ATLANTA GA     PTCLDY    71  57  61 E8        30.09S
NEW ORLEANS LA PTCLDY    82  72  71 E3        29.98S
OKLAHOMA CITY  PTCLDY    77  65  66 SE6       30.06S
ALBUQUERQUE NM CLOUDY    69  56  62 SE5       30.25R
SALT LAKE CITY CLOUDY    61  55  81 SE8       30.17S
LOS ANGELES CA PTCLDY    69  62  78 W5        29.98R
BOISE ID       CLEAR     70  45  40 SE3       30.07R
SEATTLE WA     CLEAR     78  52  40 N6        29.99S
$$

*** WEATHER ACROSS MANITOBA...SASKATCHEWAN AND ONTARIO ***
                ***ONTARIO***

CITY           SKY/WX    TMP DP  RH WIND       PRES   REMARKS
GERALDTON      CLOUDY    54  48  82 NW5       30.06S
THUNDER BAY    CLOUDY    57  48  72 W5        30.12F
SIOUX LOOKOUT  CLOUDY    52  50  93 NW2       30.12S
TORONTO        MOCLDY    72  64  78 N15G22    30.01R
BIG TROUT LK   CLOUDY    48  46  93 N5        30.07R
PICKLE LAKE    NOT AVBL
DRYDEN         CLOUDY    54  50  87 W6        30.14R
KENORA         NOT AVBL
$$
                *** MANITOBA***

CITY           SKY/WX    TMP DP  RH WIND       PRES   REMARKS
BRANDON        CLEAR     48  46  93 CALM      30.13R
DAUPHIN        CLEAR     54  48  82 SW8       30.07F
ISLAND LAKE    MOCLDY    46  46 100 CALM      30.09
PILOT MOUND      N/A     45  43  93 S7          N/A
THE PAS        CLEAR     54  50  87 SE13      29.95F
THOMPSON       CLEAR     46  46 100 S6        29.99F
WINNIPEG       CLEAR     50  46  87 S7        30.15R
LYNN LAKE      PTCLDY    55  45  67 MISG      29.84F
CHURCHILL      PTCLDY    50  41  71 SW14      29.94S
GILLAM         CLEAR     43  43 100 S6        30.04S
$$
                ***SASKATCHEWAN***

CITY           SKY/WX    TMP DP  RH WIND       PRES   REMARKS
ESTEVAN        PTCLDY    54  48  82 SE7       30.12S
KINDERSLEY     PTCLDY    57  48  72 S9        29.94S
LLOYDMINSTER   PTCLDY    59  52  77 S8        29.88S
PRINCE ALBERT  MOCLDY    63  52  67 S10G18    29.90S
REGINA         CLEAR     57  50  77 S10       30.05S
YORKTON        CLEAR     57  48  72 S9        30.06S
N. BATTLEFORD  CLEAR     55  50  82 SE7       29.91S
LA RONGE       PTCLDY    64  54  68 S6        29.81F
SASKATOON      CLEAR     63  50  63 S15       29.95S
SWIFT CURRENT  CLEAR     61  50  67 S15G21    30.01S
$$
NOTE: THESE ARE AUTOMATED STATIONS WITH LIMITED QUALITY CONTROL
      "FAIR" INDICATES FEW OR NO CLOUDS BELOW 12,000 FEET WITH NO
      SIGNIFICANT WEATHER AND/OR OBSTRUCTIONS TO VISIBILITY.
      SKY/WX - SKY CONDITION AND SIGNIFICANT WEATHER.
      TMP - AIR TEMPERATURE.    DP   - DEWPOINT TEMPERATURE.
      RH  - RELATIVE HUMIDITY.  PRES - PRESSURE.
      HX  - HEAT INDEX.         WCI  - WIND CHILL INDEX.
$



USA.gov is the U.S. government's official web portal to all federal, state and local government web resources and services.